Flag for Canada Weather past 2 weeks in Oshawa, Ontario, Canada

Now
3 °F

Clear.


Feels Like: -6 °F
Forecast: -1 / 22 °F
Wind: 5 mph from West

Location: Toronto Buttonville

Current Time: Mar 5, 2015 at 11:53:29 PM

Latest Report: Mar 5, 2015 at 11:00 PM


Visibility: 15 mi

Pressure: 30.52 "Hg

Humidity: 66%

Dew point: -6 °F

Location of OshawaLocation

Historic Weather in Oshawa — Graph

°F

Oshawa temperature yesterday

Maximum temperature yesterday: 32 °F (at 12:00 AM)
Minimum temperature yesterday: 16 °F (at 11:00 PM)
Average temperature yesterday: 28 °F

Past Weeks' High & Low Weather Summary

 TemperatureHumidityPressure
High32 °F (Mar 4, 12:00 AM)100% (Mar 3, 5:00 PM)30.79 "Hg (Mar 3, 5:00 PM)
Low-11 °F (Feb 27, 6:00 AM)36% (Mar 5, 3:00 AM)29.58 "Hg (Mar 3, 8:00 PM)
Average10 °F65%30.22 "Hg
* Reported Feb 18 11:00 PM — Mar 5 11:00 PM, Oshawa, Weather by CustomWeather, © 2015

Note: Actual official high and low records may vary slightly from our data, if they occured in-between our weather recording intervals... More about our weather records

Advertising

Oshawa weather history for previous 24 hours

 ConditionsComfort  
Time TempWeatherWind HumidityBarometerVisibility
11:00 PM
Thu, Mar 5
3 °FClear.5 mph66%30.52 "Hg15 mi
10:00 PM5 °FClear.5 mph60%30.51 "Hg15 mi
9:00 PM7 °FClear.6 mph56%30.49 "Hg15 mi
8:00 PM7 °FClear.3 mph47%30.47 "Hg15 mi
7:00 PM9 °FPassing clouds.6 mph43%30.45 "Hg15 mi
6:00 PM10 °FPassing clouds.8 mph40%30.41 "Hg15 mi
5:00 PM10 °FPassing clouds.8 mph40%30.39 "Hg15 mi
4:00 PM12 °FPassing clouds.13 mph37%30.37 "Hg15 mi
3:00 PM12 °FPassing clouds.9 mph37%30.35 "Hg15 mi
2:00 PM12 °FPassing clouds.8 mph44%30.36 "Hg15 mi
1:00 PM12 °FPartly sunny.8 mph44%30.36 "Hg15 mi
12:00 PM10 °FPartly sunny.7 mph52%30.35 "Hg15 mi
11:00 AM10 °FPartly sunny.5 mph52%30.37 "Hg14 mi
10:00 AM7 °FScattered clouds.7 mph56%30.35 "Hg15 mi
9:00 AM3 °FPartly sunny.10 mph60%30.35 "Hg15 mi
8:00 AM3 °FScattered clouds.10 mph60%30.32 "Hg15 mi
7:00 AM3 °FPartly sunny.8 mph60%30.32 "Hg15 mi
6:00 AM3 °FPassing clouds.5 mph60%30.31 "Hg15 mi
5:00 AM3 °FPassing clouds.8 mph55%30.29 "Hg15 mi
4:00 AM5 °FPassing clouds.9 mph51%30.25 "Hg15 mi
3:00 AM7 °FPassing clouds.14 mph36%30.23 "Hg15 mi
2:00 AM10 °FPassing clouds.9 mph72%30.22 "Hg15 mi
1:00 AM10 °FPassing clouds.15 mph72%30.18 "Hg15 mi
12:00 AM12 °FPassing clouds.17 mph73%30.16 "Hg12 mi
11:00 PM
Wed, Mar 4
16 °FPassing clouds.21 mph73%30.11 "Hg12 mi
Weather by CustomWeather, © 2015

See weather overviewHow to use our weather pages